Location: Emblem
(62.4273°N, 6.4710°E)
Time: 07:31:45
(UTC+02:00)

Transit 2A - Pass Details

Date: 11 March 2024
Orbit: 596 x 956 km, 66.7° (Epoch: 24 April)

Event Time Altitude Azimuth Distance (km) Brightness Sun altitude
Rises 22:22:40 0° 295° (WNW) 2,921 10.1 -25.3°
Reaches altitude 10° 22:24:53 10° 299° (WNW) 2,046 9.1 -25.5°
Maximum altitude 22:29:29 66° 22° (NNE) 751 5.9 -25.8°
Enters shadow 22:29:42 65° 39° (NE) 759 5.9 -25.8°
